Flag for U.S.A. Weather past 2 weeks in Tuscaloosa, Alabama, U.S.A.

Now
36 °F

Sunny.


Feels Like: 32 °F
Forecast: 31 / 60 °F
Wind: 5 mph from South

Location: Tuscaloosa Municipal Airport

Current Time: Jan 25, 2015 at 9:03:57 AM

Latest Report: Jan 25, 2015 at 7:53 AM


Visibility: 10 mi

Pressure: 29.96 "Hg

Humidity: 89%

Dew point: 33 °F

Location of TuscaloosaLocation

Historic Weather in Tuscaloosa — Graph

°F

Tuscaloosa temperature yesterday

Maximum temperature yesterday: 52 °F (at 2:53 PM)
Minimum temperature yesterday: 33 °F (at 11:53 PM)
Average temperature yesterday: 40 °F

Past Weeks' High & Low Weather Summary

 TemperatureHumidityPressure
High69 °F (Jan 19, 1:53 PM)97% (Jan 12, 9:58 AM)30.60 "Hg (Jan 12, 9:58 AM)
Low26 °F (Jan 10, 7:53 AM)17% (Jan 18, 3:53 PM)29.85 "Hg (Jan 23, 1:53 PM)
Average44 °F70%30.19 "Hg
* Reported Jan 10 7:53 AM — Jan 25 7:53 AM, Tuscaloosa, Weather by CustomWeather, © 2014

Note: Actual official high and low records may vary slightly from our data, if they occured in-between our weather recording intervals... More about our weather records

Advertising

Tuscaloosa weather history for previous 24 hours

 ConditionsComfort  
Time TempWeatherWind HumidityBarometerVisibility
7:53 AM
Jan 25
36 °FSunny.5 mph89%29.96 "Hg10 mi
6:53 AM32 °FSunny.No wind92%29.95 "Hg10 mi
5:53 AM33 °FClear.3 mph85%29.96 "Hg10 mi
4:53 AM32 °FClear.3 mph88%29.97 "Hg10 mi
3:53 AM31 °FClear.No wind85%29.97 "Hg10 mi
2:53 AM31 °FClear.No wind92%29.99 "Hg8 mi
1:53 AM31 °FClear.No wind92%29.99 "Hg8 mi
12:53 AM32 °FClear.No wind92%30.00 "Hg9 mi
11:53 PM
Jan 24
33 °FClear.No wind88%30.01 "Hg10 mi
10:53 PM34 °FClear.No wind88%30.02 "Hg10 mi
9:53 PM35 °FClear.No wind85%30.02 "Hg10 mi
8:53 PM36 °FClear.No wind82%30.01 "Hg10 mi
7:53 PM37 °FClear.5 mph82%30.01 "Hg10 mi
6:53 PM42 °FClear.5 mph71%30.01 "Hg10 mi
5:53 PM44 °FClear.3 mph63%30.02 "Hg10 mi
4:53 PM50 °FSunny.5 mph44%30.01 "Hg10 mi
3:53 PM51 °FSunny.10 mph42%30.00 "Hg10 mi
2:53 PM52 °FSunny.12 mph40%30.01 "Hg10 mi
1:53 PM50 °FSunny.8 mph44%30.03 "Hg10 mi
12:53 PM49 °FSunny.10 mph50%30.03 "Hg10 mi
11:53 AM47 °FSunny.8 mph61%30.07 "Hg9 mi
10:53 AM42 °FPassing clouds.8 mph71%30.09 "Hg8 mi
9:53 AM38 °FPartly sunny.6 mph83%30.10 "Hg6 mi
Weather by CustomWeather, © 2014

See weather overviewHow to use our weather pages